Location: Erba
(45.8000°N, 9.2500°E)
Time: 10:15:56
(UTC+01:00)

ISS - Visible Passes

Search period start: 12 December 2018 00:00
Search period end: 22 December 2018 00:00
Orbit: 401 x 408 km, 51.6° (Epoch: 12 December)

Date Brightness Start Highest point End Pass type
(mag) Time Alt. Az. Time Alt. Az. Time Alt. Az.
12 Dec -3.7 17:21:54 10° WNW 17:25:11 81° SSW 17:28:27 10° ESE visible
12 Dec -0.7 18:59:41 10° WSW 19:01:11 13° SW 19:02:42 10° SSW visible
13 Dec -1.2 18:06:39 10° W 18:09:14 22° SW 18:11:50 10° S visible
14 Dec -2.2 17:14:09 10° WNW 17:17:12 38° SW 17:20:15 10° SSE visible
15 Dec 0.0 18:00:38 10° SW 18:01:01 10° SW 18:01:23 10° SW visible
